sat.trackr.live / text

‹ back to catalog

STARLINK-3113

NORAD 49735 · 2021-115M

PAYLOAD ACTIVE UNKNOWN

§ Identity

Operator
Country
US
Launch date
2021-12-02
Launch site
AFETR
Launch vehicle
Mass (kg)
RCS (m²)

Purposes: comms

External: N2YO · Heavens-Above · Gunter

§ Orbital elements

Epoch: 2026-09-19T21:37:18.924672Z

Period
93.85 min
Inclination
53.1600°
Eccentricity
0.0001146
Mean motion
15.34388646 rev/d
Perigee alt
462.0 km
Apogee alt
463.5 km
Semi-major
6,840.9 km
B*
-5.7905e-5
RAAN
352.2364°
Arg perigee
92.4727°
Mean anomaly
267.6407°
Rev number
26,491

§ Raw data

STARLINK-31131 49735U 21115M   26262.90091348 -.00002331  00000+0 -57905-4 0  99902 49735  53.1600 352.2364 0001146  92.4727 267.6407 15.34388646264915

JSON: /api/v1/satellites/49735 · /tle

For live sub-satellite position, see the globe view (requires WebGL).

§ Visibility from observer

Set your observer location to see the next 7 days of passes ≥ 10°. The values pass through the URL so the page stays shareable.

No JS? Fill the form by hand. The geolocation button needs JavaScript.